Regional Weather Roundup
Issued by NWS

Home | Current Version | Previous Version | Text Only | Print | Product List | Glossary On
Versions: 1 2 3 4 5 6 7 8 9 10 11 12 13 14 15 16 17 18 19 20 21 22 23 24 25 26 27
000
ASUS45 KCYS 161010
RWRWY

WYOMING REGIONAL WEATHER ROUNDUP
NATIONAL WEATHER SERVICE CHEYENNE WY
400 AM MDT WED APR 16 2014

NOTE:  "FAIR" INDICATES FEW OR NO CLOUDS BELOW 12,000 FEET
WITH NO SIGNIFICANT WEATHER AND/OR OBSTRUCTIONS TO VISIBILITY.

WYZ001-161100-
YELLOWSTONE NATIONAL PARK

CITY           SKY/WX    TMP DP  RH WIND       PRES   REMARKS
LK YELLOWSTONE   N/A     18  15  88 CALM      29.95S
W YELLOWSTONE  NOT AVBL

$$
WYZ002>013-054>058-071-098>099-161100-
NORTHERN WYOMING

CITY           SKY/WX    TMP DP  RH WIND       PRES   REMARKS
JACKSON        PTCLDY    25  19  80 CALM      29.96R
CODY           MOCLDY    34  25  69 NE5       29.88R WCI  30
GREYBULL       MOCLDY    37  31  78 NW25G32   29.87R WCI  25
WORLAND        CLOUDY    36  30  79 N12       29.87R WCI  28
SHERIDAN       MOCLDY    37  32  82 NW25      29.85R WCI  25
BUFFALO        CLOUDY    35  29  78 NW21G29   29.83R WCI  24
GILLETTE       CLOUDY    36  32  85 NW22G30   29.77R WCI  25
HULETT         MIX PCPN  36  34  93 NW5       29.74  WCI  32
NEWCASTLE      LGT RAIN  34  32  93 NW14      29.73  WCI  24

$$
WYZ014>020-022>026-101>103-161100-
CENTRAL WYOMING

CITY           SKY/WX    TMP DP  RH WIND       PRES   REMARKS
BIG PINEY      CLEAR     19  12  74 NW12      29.94R WCI   7
PINEDALE       SUNNY     19  14  79 W6        29.93R WCI  11
DUBOIS         FAIR      25  16  68 W16       29.89R WCI  12
LANDER         PTCLDY    32  26  78 CALM      29.88R
RIVERTON       PTCLDY    31  27  85 E5        29.89R WCI  26
CASPER         MOCLDY    32  28  85 W8        29.84R WCI  25
DOUGLAS        CLOUDY    36  31  82 NW17G25   29.80R WCI  26

$$
WYZ021-027>030-104>119-161100-
SOUTHERN WYOMING

CITY           SKY/WX    TMP DP  RH WIND       PRES   REMARKS
EVANSTON       MOCLDY    31  12  45 W10       29.97R WCI  22
FORT BRIDGER   FAIR      30  13  49 W12       29.98S WCI  20
ROCK SPRINGS   CLEAR     29  17  61 W8        29.93R WCI  21
DIXON          CLOUDY    36  25  65 NW8       29.94R WCI  29
RAWLINS        CLOUDY    30  23  75 NW8       29.87S WCI  22
SARATOGA       CLOUDY    32  28  86 NW6       29.88R WCI  26
LARAMIE        NOT AVBL
CHEYENNE       MOCLDY    35  26  69 W17G24    29.76R WCI  25
TORRINGTON     MOCLDY    39  33  79 NW18G29   29.74R WCI  30
PINE BLUFFS    FAIR      34  32  93 NW16G26   29.77R WCI  23

$$



USA.gov is the U.S. government's official web portal to all federal, state and local government web resources and services.